{"data":{"norad_id":55337,"intl_designator":"2023-013G","name":"STARLINK-5667","alt_names":[],"object_type":"PAYLOAD","status":"ACTIVE","operator":null,"country":"US","launch_date":"2023-01-26","launch_site_code":"AFETR","launch_vehicle":null,"mission":null,"orbit_class":"UNKNOWN","rcs_meters":null,"size_class":null,"mass_kg":null,"dimensions":null,"purposes":["comms"],"wikipedia_slug":null,"has_3d_model":false,"image_url":null,"decayed_at":null,"tle_current":{"epoch":"2026-09-19T17:29:49.392096Z","epoch_age_seconds":163230,"freshness":"FRESH","line1":"1 55337U 23013G   26262.72904389  .00000113  00000+0  13632-4 0  9995","line2":"2 55337  43.0021 273.2968 0001238 265.5260  94.5450 15.27575761201514","mean_motion":15.27575761,"eccentricity":0.0001238,"inclination_deg":43.0021,"raan_deg":273.2968,"arg_perigee_deg":265.526,"mean_anomaly_deg":94.545,"bstar":1.3632e-5,"rev_number":20151,"period_min":94.267010302476,"perigee_km":482.21237274988,"apogee_km":483.91120557008,"semimajor_km":6861.19878916,"source":"CELESTRAK","updated_at":"2026-09-21T09:00:33.179098Z"}}}